Location: Unspecified
(48.8330°N, 0.0000°E)
Time: 14:20:07
(UTC+00:00)

OTV 5 (USA 277) - Visible Passes

Search period start: 24 June 2019 00:00
Search period end: 04 July 2019 00:00
Orbit: 280 x 298 km, 54.5° (Epoch: 21 June)

Date Brightness Start Highest point End Pass type
(mag) Time Alt. Az. Time Alt. Az. Time Alt. Az.
24 Jun ? 00:03:30 10° NW 00:05:30 21° N 00:07:31 10° ENE visible
24 Jun ? 01:37:08 10° NW 01:39:34 54° NNE 01:42:00 10° ESE visible
24 Jun ? 03:11:18 10° W 03:13:03 17° SW 03:14:49 10° S visible
24 Jun ? 21:00:05 10° WSW 21:02:34 82° NNW 21:05:03 10° ENE visible
24 Jun ? 22:34:28 10° WNW 22:36:33 23° N 22:38:37 10° NE visible
25 Jun ? 00:08:39 10° NW 00:10:46 24° N 00:12:53 10° ENE visible
25 Jun ? 01:42:13 10° WNW 01:44:42 82° SSW 01:47:09 10° ESE visible
25 Jun ? 21:05:18 10° W 21:07:42 46° NNW 21:10:08 10° NE visible
25 Jun ? 22:39:49 10° WNW 22:41:48 21° N 22:43:47 10° NE visible
26 Jun ? 00:13:43 10° NW 00:16:00 31° NNE 00:18:16 10° E visible
26 Jun ? 01:47:24 10° WNW 01:49:08 32° WSW 01:49:08 32° WSW visible
26 Jun ? 21:10:37 10° W 21:12:54 31° NNW 21:15:11 10° NE visible
26 Jun ? 22:45:06 10° NW 22:47:05 21° N 22:49:04 10° ENE visible
27 Jun ? 00:18:47 10° NW 00:21:11 46° NNE 00:21:53 34° ENE visible
27 Jun ? 21:16:01 10° WNW 21:18:08 24° NNW 21:20:15 10° NE visible
27 Jun ? 22:50:16 10° NW 22:52:21 23° N 22:54:26 10° ENE visible
28 Jun ? 00:23:51 10° WNW 00:25:37 41° NW 00:25:37 41° NW visible
28 Jun ? 21:21:22 10° WNW 21:23:24 21° N 21:25:24 10° NE visible
28 Jun ? 22:55:22 10° NW 22:57:36 28° NNE 22:59:26 13° ENE visible
29 Jun ? 00:29:00 10° WNW 00:29:42 16° WNW 00:29:42 16° WNW visible
29 Jun ? 21:26:41 10° NW 21:28:40 21° N 21:30:39 10° NE visible
29 Jun ? 23:00:26 10° NW 23:02:48 40° NNE 23:03:39 28° ENE visible
30 Jun ? 21:31:53 10° NW 21:33:56 22° N 21:35:59 10° ENE visible
30 Jun ? 23:05:29 10° WNW 23:07:58 69° NNE 23:07:59 69° NE visible
01 Jul ? 21:37:00 10° NW 21:39:12 26° NNE 21:41:22 10° ENE visible
01 Jul ? 23:10:37 10° WNW 23:12:24 40° W 23:12:24 40° W visible
02 Jul ? 21:42:04 10° NW 21:44:25 36° NNE 21:46:35 11° E visible
02 Jul ? 23:15:51 10° WNW 23:16:52 19° W 23:16:52 19° W visible
03 Jul ? 21:47:08 10° NW 21:49:35 58° NNE 21:51:06 19° E visible
